Regional Weather Roundup
Issued by NWS

Home | Current Version | Previous Version | Graphics & Text | Print | Product List | Glossary On
Versions: 1 2 3 4 5 6 7 8 9 10 11 12 13 14 15 16 17 18 19 20 21 22 23 24 25 26 27
000
ASUS45 KTFX 191010
RWRMT
MONTANA REGIONAL WEATHER ROUNDUP
NATIONAL WEATHER SERVICE GREAT FALLS MT
300 AM MST THU JAN 19 2017

NOTE: "FAIR" INDICATES FEW OR NO CLOUDS BELOW 12000 FEET WITH NO
SIGNIFICANT WEATHER AND/OR OBSTRUCTIONS TO VISIBILITY.

MTZ001>007-043-191100-
WEST OF THE DIVIDE

CITY           SKY/WX    TMP DP  RH WIND       PRES   REMARKS
KALISPELL      CLOUDY    30  29  96 CALM      29.49S FOG
MISSOULA       CLOUDY    28  26  92 N5        29.55R FOG
BUTTE          CLOUDY    24  17  74 N3        29.57F
MULLAN PASS    SNOW      32  28  85 VRB7      29.47R VSB 1/2 WCI  26
ANACONDA         N/A     36  25  64 SE8       29.54R WCI  29
DEER LODGE       N/A     37  27  65 S10       29.56S WCI  30
EUREKA           N/A     34  32  93 SW3       29.47S VSB 3/4
HAMILTON         N/A     39  27  60 S13       29.54S WCI  32
PLAINS           N/A     31  26  81 CALM      29.57
RONAN            N/A     29  27  92 CALM      29.57S
$$

MTZ008-052>055-191100-
SOUTHWEST MONTANA

CITY           SKY/WX    TMP DP  RH WIND       PRES   REMARKS
BOZEMAN        CLOUDY    22  16  78 N5        29.59R
DILLON         CLOUDY    34  20  56 SW14      29.61S WCI  25
W YELLOWSTONE  FLURRIES  16  14  93 CALM      29.75S
ENNIS          PTCLDY    30  19  64 S24G30    29.67R WCI  16
$$

MTZ009-010-012-014-046-048-049-054-191100-
EAST SLOPES AND CENTRAL MONTANA

CITY           SKY/WX    TMP DP  RH WIND       PRES   REMARKS
CUT BANK       CLOUDY    39  31  72 SW13      29.40F WCI  31
GREAT FALLS    CLOUDY    41  25  53 S15       29.46S
MALMSTROM AFB  CLOUDY    41  28  59 SW18      29.46S
HELENA         CLOUDY    27  19  72 W6        29.53S WCI  20
AUGUSTA          N/A     33  26  76 E5        29.43S
BOWMANS CRNR     N/A     33  24  68 S24       29.42F WCI  20
CHOTEAU          N/A     37  27  65 S13       29.44F WCI  29
CONRAD           N/A     37  30  76 S18       29.48R WCI  27
POWER          MOCLDY    38  27  64 S14       29.44S WCI  30
RAYNESFORD     MOCLDY    45  25  45 E6        29.49R
ULM              N/A     40  27  60 MISG      29.46S
$$

MTZ011-013-016-021-045-047-050-051-191100-
NORTH CENTRAL MONTANA

CITY           SKY/WX    TMP DP  RH WIND       PRES   REMARKS
HAVRE          CLOUDY    37  31  78 VRB3      29.42F
LEWISTOWN      CLOUDY    33  27  78 SE6       29.49F WCI  28
CHINOOK          N/A     32  28  86 CALM      29.44F
DENTON         MOCLDY    39  29  67 S14       29.43S WCI  31
GEYSER         MOCLDY    46  27  47 SW25G33   29.43F
GRASS RANGE      N/A     37  28  72 W16       29.45S WCI  27
JUDITH GAP     MOCLDY    41  24  50 SW10G20   29.50F
ROY              N/A     40  28  60 MISG      29.47S
STANFORD       MOCLDY    45  26  46 NW10G17   29.47F
WINIFRED       MOCLDY    44  27  50 SE3       29.46F
$$

MTZ017>020-022>027-061-062-191100-
NORTHEAST MONTANA

CITY           SKY/WX    TMP DP  RH WIND       PRES   REMARKS
GLASGOW        CLOUDY    25  21  85 SE9       29.48S WCI  15
JORDAN           N/A     21  18  88 CALM      29.48F
SIDNEY         CLOUDY    20  17  88 S13       29.52F WCI   7
WOLF POINT     CLOUDY    13  10  88 CALM      29.51F
PLENTYWOOD       N/A     28  23  80 E6        29.49S WCI  22
POPLAR           N/A     19  18  93 SE5       29.51F
SCOBEY           N/A     23  15  71 S1        29.50
$$

MTZ028>42-056>058-191100-
SOUTHCENTRAL AND SOUTHEAST MONTANA

CITY           SKY/WX    TMP DP  RH WIND       PRES   REMARKS
BAKER          CLOUDY    18  11  74 CALM      29.53F
BILLINGS       CLOUDY    34  19  54 SW16      29.52F WCI  24
LIVINGSTON     CLOUDY    43  11  27 SW24G36   29.55F
MILES CITY     CLOUDY    24  17  74 S7        29.52F WCI  16
BIG TIMBER     CLOUDY    43  12  28 W30G39    29.54F
FORSYTH          N/A     25  21  86 CALM      29.52F
HARLOWTON      MOCLDY    36  22  57 NW9       29.50F WCI  29
LAUREL           N/A     31  18  58 SW10      29.55F WCI  22
$$

REGIONAL REPORTS...DAKOTAS

CITY           SKY/WX    TMP DP  RH WIND       PRES   REMARKS
WILLISTON      CLOUDY    20  19  96 CALM      29.52F
MINOT          CLOUDY    27  22  81 SE3       29.49F
DICKINSON      CLOUDY    24  18  77 S3        29.50F
BEACH            N/A     21  18  86 S3        29.55S
CROSBY           N/A     28  25  86 SW20      29.49F WCI  15
TIOGA            N/A     25  25 100 SW7       29.52S WCI  17
WATFORD CITY     N/A     21  18  86 CALM      29.52S
BISMARCK       CLOUDY    19  14  81 CALM      29.56F
GRAND FORKS    CLOUDY    25  19  78 S12       29.61R WCI  14
FARGO          CLOUDY    27  25  92 S13       29.64F WCI  16
BUFFALO SD       N/A     24  17  74 W8        29.47F WCI  15
RAPID CITY     CLEAR     26  19  74 NW3       29.54F
$$

REGIONAL REPORTS...WYOMING/IDAHO/WASHINGTON

CITY           SKY/WX    TMP DP  RH WIND       PRES   REMARKS
GILLETTE       CLOUDY    33  19  56 SW18      29.55F WCI  22
SHERIDAN       CLOUDY    17  13  84 SE7       29.54F WCI   8
BUFFALO WY     CLOUDY    38  15  39 SW7       29.57S
CODY           CLOUDY    21  14  74 VRB5      29.60F
YELLOWSTONE LA   N/A     15  13  91 CALM      29.74F
IDAHO FALLS    LGT SNOW  21  20  96 N5        29.78F VSB 1
SALMON         CLOUDY    18  12  79 CALM      29.67F
BOISE          MIX PCPN  36  33  89 S10       29.64F WCI  28
SPOKANE        LGT RAIN  36  34  92 SE14      29.49R WCI  27
$$

REGIONAL REPORTS...ALBERTA

CITY           SKY/WX    TMP DP  RH WIND       PRES   REMARKS
EDMONTON       CLEAR     36  21  55 SW6       29.23R WCI  31
CALGARY        MOCLDY    32  27  80 CALM      29.27F
LETHBRIDGE     PTCLDY    34  32  93 S12       29.35F WCI  25
MEDICINE HAT   MOCLDY    37  32  81 SW10      29.36S WCI  30
WATERTON GATE    N/A     39  34  81 W2          N/A
CARDSTON         N/A     41  34  75 S6          N/A
MILK RIVER       N/A     39  34  81 W6          N/A
$$

REGIONAL REPORTS...SASKATCHEWAN

CITY           SKY/WX    TMP DP  RH WIND       PRES   REMARKS
SWIFT CURRENT  PTCLDY    37  32  81 SW13      29.37S WCI  29
REGINA         CLEAR     32  27  80 SW13      29.41S WCI  22
SASKATOON      MOCLDY    34  30  86 SW7       29.32S WCI  28
CYPRESS HILLS    N/A     34  28  80 S7          N/A  WCI  28
VAL MARIE        N/A     18  16  93 E6          N/A  WCI   9
ROCKGLEN         N/A     36  28  75 SW9         N/A  WCI  29
ASSINIBOIA       N/A     28  25  86 SW10        N/A  WCI  19
$$




USA.gov is the U.S. government's official web portal to all federal, state and local government web resources and services.